Location: Kawakawa
(35.3830°S, 174.0670°E)
Time: 18:32:42
(UTC+13:00)

Vanguard 2 - All Passes

Search period start: 10 December 2019 00:00
Search period end: 20 December 2019 00:00
Orbit: 553 x 2938 km, 32.9° (Epoch: 09 December)

Date Brightness Start Highest point End Pass type
(mag) Time Alt. Az. Time Alt. Az. Time Alt. Az.
10 Dec - 13:39:22 10° NNW 13:42:33 16° NNE 13:45:17 10° ENE daylight
10 Dec - 15:46:26 10° WNW 15:50:34 44° NNE 15:54:25 10° E daylight
10 Dec - 17:54:32 10° W 17:58:28 62° N 18:03:21 10° ENE daylight
10 Dec - 20:02:21 10° W 20:06:40 36° NNW 20:12:53 10° NE daylight
10 Dec - 22:12:02 10° NW 22:15:38 15° NNW 22:20:05 10° N visible
11 Dec - 13:56:10 10° NNW 14:00:29 23° NNE 14:03:55 10° ENE daylight
11 Dec - 16:04:15 10° WNW 16:08:28 54° N 16:12:25 10° E daylight
11 Dec - 18:12:27 10° W 18:16:23 55° N 18:21:19 10° ENE daylight
11 Dec - 20:20:33 10° WNW 20:24:38 26° NNW 20:30:16 10° NE daylight
12 Dec - 12:07:39 10° N 12:09:50 12° NNE 12:11:45 10° NE daylight
12 Dec - 14:13:30 10° NW 14:18:23 32° NNE 14:22:10 10° E daylight
12 Dec - 16:22:10 10° WNW 16:26:21 62° N 16:30:23 10° E daylight
12 Dec - 18:30:25 10° W 18:34:18 45° NNW 18:39:10 10° ENE daylight
12 Dec - 20:39:04 10° WNW 20:42:37 19° NNW 20:47:11 10° NNE daylight
13 Dec - 12:23:13 10° NNW 12:27:51 18° NNE 12:31:27 10° ENE daylight
13 Dec - 14:31:08 10° WNW 14:36:17 42° NNE 14:40:14 10° E daylight
13 Dec - 16:40:07 10° W 16:44:16 63° N 16:48:20 10° E daylight
13 Dec - 18:48:27 10° W 18:52:11 34° NNW 18:56:51 10° NE daylight
13 Dec - 20:58:25 10° NW 21:00:36 12° NNW 21:03:07 10° N visible
14 Dec - 12:39:58 10° NNW 12:45:51 25° NNE 12:50:04 10° ENE daylight
14 Dec - 14:48:58 10° WNW 14:54:12 53° N 14:58:12 10° E daylight
14 Dec - 16:58:05 10° W 17:02:10 57° N 17:06:15 10° ENE daylight
14 Dec - 19:06:39 10° WNW 19:10:05 25° NNW 19:14:17 10° NE daylight
15 Dec - 10:50:24 10° N 10:54:42 14° NNE 10:58:13 10° NE daylight
15 Dec - 12:57:16 10° NW 13:03:50 34° NNE 13:08:19 10° E daylight
15 Dec - 15:06:55 10° WNW 15:12:07 62° N 15:16:07 10° E daylight
15 Dec - 17:16:06 10° W 17:20:03 47° NNW 17:24:05 10° ENE daylight
15 Dec - 19:25:10 10° WNW 19:27:58 17° NNW 19:31:15 10° NNE daylight
16 Dec - 11:06:10 10° NNW 11:12:47 20° NNE 11:17:37 10° ENE daylight
16 Dec - 13:14:52 10° NW 13:21:47 44° NNE 13:26:23 10° E daylight
16 Dec - 15:24:56 10° W 15:30:02 65° N 15:34:02 10° E daylight
16 Dec - 17:34:09 10° W 17:37:54 36° NNW 17:41:47 10° NE daylight
16 Dec - 19:44:53 10° NW 19:45:53 11° NNW 19:46:55 10° NNW daylight
17 Dec - 11:22:52 10° NNW 11:30:50 28° NNE 11:36:14 10° ENE daylight
17 Dec - 13:32:42 10° WNW 13:39:44 54° N 13:44:21 10° E daylight
17 Dec - 15:42:58 10° W 15:47:57 63° N 15:51:55 10° ENE daylight
17 Dec - 17:52:20 10° W 17:55:43 26° NNW 17:59:16 10° NE daylight
18 Dec - 09:32:45 10° N 09:39:07 16° NNE 09:44:09 10° ENE daylight
18 Dec - 11:40:04 10° NW 11:48:53 37° NNE 11:54:30 10° E daylight
18 Dec - 13:50:41 10° WNW 13:57:41 63° N 14:02:15 10° E daylight
18 Dec - 16:01:02 10° W 16:05:50 55° N 16:09:44 10° ENE daylight
18 Dec - 18:10:46 10° WNW 18:13:31 18° NNW 18:16:22 10° NNE daylight
19 Dec - 09:48:28 10° NNW 09:57:14 23° NNE 10:03:32 10° ENE daylight
19 Dec - 11:57:38 10° NW 12:06:53 46° NNE 12:12:36 10° E daylight
19 Dec - 14:08:45 10° W 14:15:37 69° N 14:20:09 10° E daylight
19 Dec - 16:19:07 10° W 16:23:40 43° NNW 16:27:29 10° NE daylight
19 Dec - 18:30:10 10° NW 18:31:17 11° NNW 18:32:25 10° NNW daylight
